Weather History for Mount Pleasant, SC

Change the Weather History Date:

Tuesday, January 8, 2013

  Actual Average (KCHS) Record (KCHS)
Temperature  
Mean Temperature 56 °F 48 °F  
Max Temperature 69 °F 59 °F 81 °F (2005)
Min Temperature 44 °F 37 °F 16 °F (1970)
Degree Days  
Heating Degree Days 8 17  
Month to date heating degree days 136  
Since 1 July heating degree days 874  
Cooling Degree Days 0 0  
Month to date cooling degree days 0  
Year to date cooling degree days 0  
Growing Degree Days 6 (Base 50)    
Moisture  
Dew Point 47 °F    
Average Humidity 79    
Maximum Humidity 100    
Minimum Humidity 60    
Precipitation  
Precipitation 0.00 in 0.11 in 1.13 in (1975)
Month to date precipitation 0.91  
Year to date precipitation 0.91  
Sea Level Pressure  
Sea Level Pressure 30.34 in    
Wind  
Wind Speed 4 mph (NE)    
Max Wind Speed 7 mph    
Max Gust Speed -    
Visibility 10 miles    
Events      
T = Trace of Precipitation, MM = Missing Value Source: NWS Daily Summary

Daily Weather History Graph

Daily Weather History Graph

Search for Another Location

Airport:

Trip Planner

Search our weather history database for the weather conditions in past years. The results will help you decide how hot, cold, wet, or windy it might be!

Date:

Astronomy

Jan. 08, 2013 Rise Set
Actual Time 7:22 AM EST 5:29 PM EST
Civil Twilight 6:55 AM EST 5:56 PM EST
Nautical Twilight 6:25 AM EST 6:27 PM EST
Astronomical Twilight 5:55 AM EST 6:57 PM EST
Moon 3:54 AM EST (1/8) 2:29 PM EST (1/8)
Length of Visible Light 11h 00m
Length of Day
10h 06m
Waning Crescent, 14% of the Moon is Illuminated
Jan 8
Waning Crescent
Jan 11
New
Jan 18
First Quarter
Jan 26
Full
Feb 3
Last Quarter

Hourly Weather History & Observations

Time (EST) Temp. Windchill Dew Point Humidity Pressure Visibility Wind Dir Wind Speed Gust Speed Precip Events Conditions
12:15 AM 46.4 °F 44.3 °F 39.2 °F 76% 30.35 in 10.0 mi NNE 4.6 mph - N/A   Overcast
12:35 AM 46.4 °F 44.3 °F 39.2 °F 76% 30.35 in 10.0 mi North 4.6 mph - N/A   Mostly Cloudy
12:55 AM 46.4 °F 44.3 °F 39.2 °F 76% 30.34 in 10.0 mi NNE 4.6 mph - N/A   Mostly Cloudy
1:15 AM 44.6 °F 41.4 °F 39.2 °F 81% 30.34 in 10.0 mi North 5.8 mph - N/A   Partly Cloudy
1:35 AM 44.6 °F 43.1 °F 39.2 °F 81% 30.34 in 10.0 mi NNE 3.5 mph - N/A   Clear
1:55 AM 44.6 °F 43.1 °F 39.2 °F 81% 30.33 in 10.0 mi NNE 3.5 mph - N/A   Clear
2:15 AM 44.6 °F 42.2 °F 39.2 °F 81% 30.32 in 10.0 mi NNE 4.6 mph - N/A   Partly Cloudy
2:35 AM 44.6 °F 43.1 °F 41.0 °F 87% 30.33 in 10.0 mi NNE 3.5 mph - N/A   Mostly Cloudy
2:55 AM 46.4 °F 43.5 °F 41.0 °F 81% 30.32 in 10.0 mi NNE 5.8 mph - N/A   Mostly Cloudy
3:15 AM 44.6 °F 41.4 °F 41.0 °F 87% 30.32 in 10.0 mi NNE 5.8 mph - N/A   Partly Cloudy
3:35 AM 44.6 °F 42.2 °F 41.0 °F 87% 30.32 in 10.0 mi NNE 4.6 mph - N/A   Clear
3:55 AM 44.6 °F 42.2 °F 41.0 °F 87% 30.31 in 10.0 mi NNE 4.6 mph - N/A   Partly Cloudy
4:15 AM 44.6 °F 42.2 °F 41.0 °F 87% 30.31 in 10.0 mi NNE 4.6 mph - N/A   Clear
4:35 AM 44.6 °F 41.4 °F 41.0 °F 87% 30.31 in 10.0 mi NNE 5.8 mph - N/A   Clear
4:55 AM 46.4 °F 42.9 °F 41.0 °F 81% 30.31 in 10.0 mi NE 6.9 mph - N/A   Mostly Cloudy
5:15 AM 46.4 °F 43.5 °F 41.0 °F 81% 30.31 in 10.0 mi NNE 5.8 mph - N/A   Scattered Clouds
5:35 AM 46.4 °F 43.5 °F 39.2 °F 76% 30.32 in 10.0 mi NNE 5.8 mph - N/A   Partly Cloudy
5:55 AM 46.4 °F 42.9 °F 39.2 °F 76% 30.32 in 10.0 mi NNE 6.9 mph - N/A   Mostly Cloudy
6:15 AM 46.4 °F 43.5 °F 39.2 °F 76% 30.33 in 10.0 mi NNE 5.8 mph - N/A   Mostly Cloudy
6:35 AM 46.4 °F 44.3 °F 39.2 °F 76% 30.34 in 10.0 mi NNE 4.6 mph - N/A   Mostly Cloudy
6:55 AM 46.4 °F 43.5 °F 39.2 °F 76% 30.35 in 10.0 mi North 5.8 mph - N/A   Mostly Cloudy
7:15 AM 44.6 °F 42.2 °F 39.2 °F 81% 30.35 in 10.0 mi NNE 4.6 mph - N/A   Partly Cloudy
7:35 AM 44.6 °F 41.4 °F 39.2 °F 81% 30.35 in 10.0 mi NNE 5.8 mph - N/A   Clear
7:55 AM 44.6 °F 42.2 °F 37.4 °F 76% 30.36 in 10.0 mi NNE 4.6 mph - N/A   Clear
8:15 AM 44.6 °F 41.4 °F 39.2 °F 81% 30.38 in 10.0 mi NNE 5.8 mph - N/A   Partly Cloudy
8:35 AM 46.4 °F 44.3 °F 39.2 °F 76% 30.38 in 10.0 mi NNE 4.6 mph - N/A   Clear
8:55 AM 48.2 °F - 39.2 °F 71% 30.38 in 10.0 mi North 3.5 mph - N/A   Clear
9:15 AM 50.0 °F - 41.0 °F 71% 30.38 in 10.0 mi NNE 5.8 mph - N/A   Partly Cloudy
9:35 AM 51.8 °F - 42.8 °F 71% 30.39 in 10.0 mi Calm Calm - N/A   Clear
9:55 AM 53.6 °F - 44.6 °F 72% 30.40 in 10.0 mi NNE 4.6 mph - N/A   Clear
10:15 AM 53.6 °F - 44.6 °F 72% 30.39 in 10.0 mi Calm Calm - N/A   Clear
10:35 AM 57.2 °F - 46.4 °F 67% 30.39 in 10.0 mi Calm Calm - N/A   Clear
10:55 AM 59.0 °F - 48.2 °F 67% 30.38 in 10.0 mi NE 5.8 mph - N/A   Clear
11:15 AM 60.8 °F - 48.2 °F 63% 30.37 in 10.0 mi NE 3.5 mph - N/A   Clear
11:35 AM 62.6 °F - 51.8 °F 68% 30.36 in 10.0 mi ENE 5.8 mph - N/A   Partly Cloudy
11:55 AM 64.4 °F - 51.8 °F 64% 30.35 in 10.0 mi NE 3.5 mph - N/A   Clear
12:15 PM 64.4 °F - 53.6 °F 68% 30.35 in 9.0 mi Calm Calm - N/A   Clear
12:35 PM 66.2 °F - 53.6 °F 64% 30.34 in 10.0 mi ENE 4.6 mph - N/A   Clear
12:55 PM 66.2 °F - 55.4 °F 68% 30.34 in 10.0 mi Calm Calm - N/A   Clear
1:15 PM 66.2 °F - 55.4 °F 68% 30.33 in 9.0 mi ENE 6.9 mph - N/A   Clear
1:35 PM 68.0 °F - 55.4 °F 64% 30.32 in 9.0 mi NE 4.6 mph - N/A   Clear
1:55 PM 69.8 °F - 55.4 °F 60% 30.32 in 10.0 mi ENE 3.5 mph - N/A   Clear
2:15 PM 69.8 °F - 55.4 °F 60% 30.32 in 9.0 mi NE 4.6 mph - N/A   Clear
2:35 PM 69.8 °F - 55.4 °F 60% 30.32 in 10.0 mi Calm Calm - N/A   Scattered Clouds
2:55 PM 69.8 °F - 55.4 °F 60% 30.32 in 10.0 mi East 4.6 mph - N/A   Scattered Clouds
3:15 PM 69.8 °F - 55.4 °F 60% 30.32 in 9.0 mi ESE 3.5 mph - N/A   Partly Cloudy
3:35 PM 68.0 °F - 55.4 °F 64% 30.32 in 10.0 mi ESE 5.8 mph - N/A   Clear
3:55 PM 66.2 °F - 55.4 °F 68% 30.32 in 9.0 mi East 5.8 mph - N/A   Clear
4:15 PM 66.2 °F - 55.4 °F 68% 30.31 in 9.0 mi ENE 3.5 mph - N/A   Clear
4:35 PM 64.4 °F - 55.4 °F 73% 30.32 in 9.0 mi ENE 3.5 mph - N/A   Clear
4:55 PM 62.6 °F - 55.4 °F 77% 30.32 in 10.0 mi Calm Calm - N/A   Clear
5:15 PM 62.6 °F - 55.4 °F 77% 30.32 in 10.0 mi Calm Calm - N/A   Clear
5:35 PM 60.8 °F - 53.6 °F 77% 30.33 in 10.0 mi NE 3.5 mph - N/A   Clear
5:55 PM 60.8 °F - 53.6 °F 77% 30.33 in 10.0 mi ENE 3.5 mph - N/A   Clear
6:15 PM 59.0 °F - 53.6 °F 82% 30.33 in 10.0 mi Calm Calm - N/A   Clear
6:35 PM 57.2 °F - 53.6 °F 88% 30.33 in 10.0 mi NE 4.6 mph - N/A   Clear
6:55 PM 57.2 °F - 53.6 °F 88% 30.34 in 10.0 mi Calm Calm - N/A   Clear
7:15 PM 57.2 °F - 53.6 °F 88% 30.35 in 10.0 mi Calm Calm - N/A   Clear
7:35 PM 55.4 °F - 53.6 °F 94% 30.35 in 10.0 mi Calm Calm - N/A   Clear
7:55 PM 55.4 °F - 51.8 °F 88% 30.35 in 10.0 mi Calm Calm - N/A   Clear
8:15 PM 55.4 °F - 51.8 °F 88% 30.35 in 10.0 mi Calm Calm - N/A   Clear
8:35 PM 55.4 °F - 51.8 °F 88% 30.35 in 10.0 mi NE 3.5 mph - N/A   Clear
8:55 PM 53.6 °F - 51.8 °F 94% 30.35 in 10.0 mi Calm Calm - N/A   Clear
9:15 PM 51.8 °F - 51.8 °F 100% 30.35 in 9.0 mi Calm Calm - N/A   Clear
9:35 PM 53.6 °F - 51.8 °F 94% 30.35 in 9.0 mi Calm Calm - N/A   Clear
9:55 PM 51.8 °F - 51.8 °F 100% 30.35 in 8.0 mi NNE 3.5 mph - N/A   Clear
10:15 PM 53.6 °F - 51.8 °F 94% 30.35 in 8.0 mi NNE 3.5 mph - N/A   Clear
10:35 PM 51.8 °F - 51.8 °F 100% 30.35 in 8.0 mi Calm Calm - N/A   Clear
10:55 PM 51.8 °F - 50.0 °F 94% 30.36 in 7.0 mi Calm Calm - N/A   Clear
11:15 PM 51.8 °F - 50.0 °F 94% 30.36 in 7.0 mi NNE 3.5 mph - N/A   Scattered Clouds
11:35 PM 53.6 °F - 51.8 °F 94% 30.36 in 9.0 mi NE 3.5 mph - N/A   Mostly Cloudy
11:55 PM 53.6 °F - 51.8 °F 94% 30.35 in 10.0 mi Calm Calm - N/A   Mostly Cloudy